GW0254 Weather Reports


Display with metric or nautical units.
time (UTC)temp
F
wind
direction
speed
MPH
gust
MPH
rain 1hr
in
rain 24hr
in
rain mn
in
humidity
%
barometer
mb
20260901151545 58 172 2.0 8.0 0.00 0.00 0.00 43 1018.7
20260901150107 57 172 1.0 10.0 0.00 0.00 0.00 44 1018.7
20260901144547 55 351 1.0 5.0 0.00 0.00 0.00 45 1018.4
20260901143045 53 0 1.0 4.0 0.00 0.00 0.00 45 1018.4
20260901141559 51 5 1.0 3.0 0.00 0.00 0.00 46 1018.3
20260901140056 50 5 2.0 4.0 0.00 0.00 0.00 46 1018.3
20260901134556 50 360 1.0 4.0 0.00 0.00 0.00 45 1018.3
20260901133054 50 360 2.0 5.0 0.00 0.00 0.00 45 1018.3
20260901131559 51 360 2.0 3.0 0.00 0.00 0.00 44 1018.2
20260901130053 51 360 2.0 4.0 0.00 0.00 0.00 44 1018.3
20260901124550 51 360 1.0 3.0 0.00 0.00 0.00 44 1018.4
20260901123049 51 360 1.0 5.0 0.00 0.00 0.00 42 1018.3
20260901121613 52 360 1.0 5.0 0.00 0.00 0.00 43 1018.4
20260901120107 52 360 1.0 5.0 0.00 0.00 0.00 42 1018.4
20260901114557 52 360 1.0 4.0 0.00 0.00 0.00 44 1018.6
20260901113055 52 360 1.0 5.0 0.00 0.00 0.00 46 1018.4
20260901111602 52 0 1.0 4.0 0.00 0.00 0.00 47 1018.4
20260901110052 52 360 1.0 3.0 0.00 0.00 0.00 50 1018.4
20260901104551 52 360 1.0 4.0 0.00 0.00 0.00 51 1018.5
20260901103057 52 360 0.0 4.0 0.00 0.00 0.00 52 1018.5
20260901101556 53 360 1.0 2.0 0.00 0.00 0.00 51 1018.5
20260901100050 53 360 0.0 5.0 0.00 0.00 0.00 50 1018.5
20260901094554 53 352 0.0 3.0 0.00 0.00 0.00 50 1018.8
20260901093049 53 352 1.0 5.0 0.00 0.00 0.00 49 1018.8
20260901091602 53 318 1.0 5.0 0.00 0.00 0.00 47 1018.7
20260901090059 54 0 1.0 3.0 0.00 0.00 0.00 46 1018.8
20260901084544 54 28 1.0 3.0 0.00 0.00 0.00 44 1018.8
20260901083045 54 28 1.0 4.0 0.00 0.00 0.00 43 1018.7
20260901081552 54 28 1.0 4.0 0.00 0.00 0.00 43 1018.8
20260901080100 54 28 1.0 3.0 0.00 0.00 0.00 44 1018.8
20260901074547 54 27 1.0 4.0 0.00 0.00 0.00 43 1018.9
20260901073044 54 28 2.0 4.0 0.00 0.00 0.00 43 1019.0
20260901071551 55 0 1.0 3.0 0.00 0.00 0.00 44 1018.9
20260901070052 55 28 1.0 3.0 0.00 0.00 0.00 44 1019.1
20260901064549 55 28 2.0 3.0 0.00 0.00 0.00 45 1019.1
20260901063058 55 28 1.0 4.0 0.00 0.00 0.00 45 1019.2
20260901061551 55 9 1.0 4.0 0.00 0.00 0.00 45 1019.1
20260901060054 55 9 2.0 4.0 0.00 0.00 0.00 46 1019.1
20260901054546 56 9 2.0 3.0 0.00 0.00 0.00 47 1019.3
20260901053052 56 9 2.0 5.0 0.00 0.00 0.00 48 1019.4
20260901051551 56 32 2.0 4.0 0.00 0.00 0.00 48 1019.4
20260901050044 56 36 1.0 4.0 0.00 0.00 0.00 49 1019.6
20260901044551 56 36 1.0 4.0 0.00 0.00 0.00 49 1019.6
20260901043046 56 36 0.0 3.0 0.00 0.00 0.00 50 1019.4
20260901041549 56 36 1.0 3.0 0.00 0.00 0.00 50 1019.5
20260901040057 57 36 1.0 6.0 0.00 0.00 0.00 49 1019.3
20260901034551 58 165 1.0 4.0 0.00 0.00 0.00 48 1019.1
20260901033046 58 165 1.0 5.0 0.00 0.00 0.00 47 1019.0
20260901031545 58 0 1.0 4.0 0.00 0.00 0.00 47 1018.9
20260901030055 59 165 0.0 6.0 0.00 0.00 0.00 46 1018.9
20260901024550 60 0 0.0 4.0 0.00 0.00 0.00 45 1018.9
20260901023046 61 171 0.0 2.0 0.00 0.00 0.00 44 1019.1
20260901021545 62 171 0.0 2.0 0.00 0.00 0.00 43 1019.1
20260901020046 63 171 0.0 3.0 0.00 0.00 0.00 43 1019.0
20260901014556 64 171 0.0 4.0 0.00 0.00 0.00 42 1019.1
20260901013048 64 169 1.0 6.0 0.00 0.00 0.00 41 1019.1
20260901011545 65 190 2.0 10.0 0.00 0.00 0.00 41 1019.1
20260901010059 66 142 3.0 8.0 0.00 0.00 0.00 40 1019.1
20260901004552 66 219 3.0 10.0 0.00 0.00 0.00 40 1018.9
20260901003046 67 187 1.0 11.0 0.00 0.00 0.00 39 1019.0
20260901001545 68 187 2.0 10.0 0.00 0.00 0.00 38 1019.0
20260901000052 69 178 4.0 12.0 0.00 0.00 0.00 35 1019.0
20260831234552 69 166 2.0 11.0 0.00 0.00 0.00 35 1019.0
20260831233057 69 166 3.0 11.0 0.00 0.00 0.00 34 1019.1
20260831231550 70 250 3.0 13.0 0.00 0.00 0.00 34 1019.1
20260831230046 70 182 4.0 12.0 0.00 0.00 0.00 34 1019.1
20260831224547 72 199 3.0 8.0 0.00 0.00 0.00 30 1019.1
20260831223053 71 175 4.0 10.0 0.00 0.00 0.00 30 1019.3
20260831221551 72 136 4.0 8.0 0.00 0.00 0.00 28 1019.5
20260831220049 72 183 4.0 10.0 0.00 0.00 0.00 28 1019.7
20260831214605 72 146 3.0 11.0 0.00 0.00 0.00 29 1019.9
20260831213045 70 179 3.0 11.0 0.00 0.00 0.00 35 1019.9
20260831211550 70 145 2.0 8.0 0.00 0.00 0.00 35 1020.1
20260831210046 71 174 3.0 7.0 0.00 0.00 0.00 35 1020.1
20260831204548 69 196 2.0 9.0 0.00 0.00 0.00 36 1020.1
20260831203049 69 182 3.0 9.0 0.00 0.00 0.00 33 1020.2
20260831201602 69 168 3.0 9.0 0.00 0.00 0.00 32 1020.3
20260831200046 69 147 3.0 10.0 0.00 0.00 0.00 32 1020.5
20260831194546 70 143 5.0 9.0 0.00 0.00 0.00 30 1020.6
20260831193113 69 175 2.0 10.0 0.00 0.00 0.00 32 1020.7
20260831191551 69 198 3.0 10.0 0.00 0.00 0.00 30 1020.8
20260831190051 70 187 2.0 8.0 0.00 0.00 0.00 30 1020.9
20260831184546 69 163 1.0 7.0 0.00 0.00 0.00 29 1020.9
20260831183050 69 153 2.0 7.0 0.00 0.00 0.00 29 1020.9
20260831181608 69 199 3.0 8.0 0.00 0.00 0.00 37 1020.9
20260831180047 68 152 3.0 7.0 0.00 0.00 0.00 44 1020.9
20260831174555 66 190 3.0 7.0 0.00 0.00 0.00 45 1020.9
20260831173048 66 175 2.0 7.0 0.00 0.00 0.00 46 1020.9
20260831171547 65 165 2.0 5.0 0.00 0.00 0.00 55 1020.9
20260831170056 65 189 3.0 7.0 0.00 0.00 0.00 57 1020.8
20260831164602 65 190 2.0 6.0 0.00 0.00 0.00 61 1020.7
20260831163051 63 196 3.0 7.0 0.00 0.00 0.00 61 1020.7
20260831161603 63 158 1.0 5.0 0.00 0.00 0.00 63 1020.8
20260831154618 62 170 2.0 6.0 0.00 0.00 0.00 62 1020.9
20260831153056 62 158 2.0 5.0 0.00 0.00 0.00 61 1020.9